NOZ4FE ENGM-ENEV

Flight info

Callsign NOZ4FE
Flight time N/A
Altitude 37000
Route RIBBE DCT GIGNI DCT SOMUB DCT TUXOT DCT VABOT DCT PENNO
Aircraft B738/M-SDE2E3GHIJ1LRWXY/LB1

Departure

Time N/A
Airport Oslo-Gardermoen International Airport (ENGM)

Arrival

Time 2026-04-27 14:37
Airport Harstad/Narvik Airport (ENEV)
Time Latitude Longitude Altitude Speed Heading
2026-04-27 13:44 64.15378 12.45904 37413 ft 406 kts 14°
2026-04-27 13:44 64.18023 12.47980 37407 ft 406 kts 14°
2026-04-27 13:44 64.23370 12.52198 37407 ft 406 kts 14°
2026-04-27 13:45 64.28697 12.56419 37402 ft 406 kts 14°
2026-04-27 13:45 64.34057 12.60685 37392 ft 406 kts 14°
2026-04-27 13:46 64.39406 12.64960 37394 ft 407 kts 14°
2026-04-27 13:46 64.44769 12.69263 37409 ft 408 kts 14°
2026-04-27 13:47 64.50111 12.73566 37399 ft 408 kts 14°
2026-04-27 13:47 64.55461 12.77895 37382 ft 408 kts 14°
2026-04-27 13:48 64.60834 12.82261 37383 ft 409 kts 14°
2026-04-27 13:48 64.66225 12.86659 37389 ft 409 kts 14°
2026-04-27 13:49 64.71610 12.91070 37386 ft 409 kts 14°
2026-04-27 13:49 64.76961 12.95532 37387 ft 410 kts 15°
2026-04-27 13:50 64.82242 13.00135 37391 ft 410 kts 16°
2026-04-27 13:50 64.87547 13.04798 37374 ft 409 kts 16°
2026-04-27 13:51 64.92854 13.09469 37376 ft 408 kts 16°
2026-04-27 13:51 64.98176 13.14161 37371 ft 407 kts 15°
2026-04-27 13:52 65.03463 13.18838 37409 ft 406 kts 16°
2026-04-27 13:52 65.08736 13.23517 37377 ft 407 kts 16°
2026-04-27 13:53 65.16727 13.30649 37368 ft 409 kts 16°
2026-04-27 13:54 65.22027 13.35406 37392 ft 409 kts 16°
2026-04-27 13:54 65.27375 13.40226 37376 ft 412 kts 16°
2026-04-27 13:55 65.32748 13.45091 37380 ft 413 kts 16°
2026-04-27 13:55 65.38111 13.49968 37386 ft 414 kts 17°
2026-04-27 13:56 65.43511 13.54900 37370 ft 416 kts 17°
2026-04-27 13:56 65.48908 13.59852 37365 ft 416 kts 17°
2026-04-27 13:57 65.54329 13.64848 37367 ft 416 kts 17°
2026-04-27 13:57 65.59717 13.69835 37377 ft 416 kts 17°
2026-04-27 13:58 65.65123 13.74862 37401 ft 416 kts 17°
2026-04-27 13:58 65.70509 13.79892 37378 ft 416 kts 17°
2026-04-27 13:59 65.75900 13.84951 37377 ft 414 kts 17°
2026-04-27 13:59 65.81243 13.89984 37378 ft 414 kts 17°
2026-04-27 14:00 65.86619 13.95065 37370 ft 413 kts 17°
2026-04-27 14:00 65.91904 14.00083 37376 ft 411 kts 17°
2026-04-27 14:01 65.97206 14.05139 37372 ft 412 kts 17°
2026-04-27 14:01 66.02511 14.10221 37369 ft 412 kts 17°
2026-04-27 14:02 66.07867 14.15374 37367 ft 412 kts 17°
2026-04-27 14:02 66.13225 14.20557 37366 ft 413 kts 17°
2026-04-27 14:03 66.18546 14.25727 37374 ft 413 kts 17°
2026-04-27 14:03 66.23911 14.30960 37412 ft 413 kts 17°
2026-04-27 14:04 66.29279 14.36222 37388 ft 414 kts 17°
2026-04-27 14:04 66.34613 14.41474 37215 ft 417 kts 17°
2026-04-27 14:04 66.37311 14.44140 36941 ft 412 kts 17°
2026-04-27 14:05 66.39962 14.46771 36524 ft 407 kts 17°
2026-04-27 14:05 66.42575 14.49371 36162 ft 402 kts 17°
2026-04-27 14:05 66.45166 14.51952 35763 ft 397 kts 17°
2026-04-27 14:05 66.46859 14.53641 35511 ft 394 kts 17°
2026-04-27 14:06 66.49397 14.56176 35119 ft 390 kts 17°
2026-04-27 14:06 66.52726 14.59509 34620 ft 386 kts 17°
2026-04-27 14:06 66.55202 14.61994 34189 ft 382 kts 17°
2026-04-27 14:06 66.56843 14.63642 33818 ft 381 kts 17°
2026-04-27 14:07 66.60111 14.66937 33291 ft 374 kts 16°
2026-04-27 14:07 66.62506 14.69359 32922 ft 368 kts 16°
2026-04-27 14:07 66.64849 14.71734 32567 ft 363 kts 16°
2026-04-27 14:07 66.67180 14.74100 32209 ft 358 kts 15°
2026-04-27 14:08 66.69479 14.76437 31855 ft 353 kts 15°
2026-04-27 14:08 66.70977 14.77963 31630 ft 350 kts 15°
2026-04-27 14:08 66.73219 14.80251 31289 ft 344 kts 15°
2026-04-27 14:08 66.76146 14.83243 30835 ft 338 kts 14°
2026-04-27 14:09 66.77583 14.84715 30609 ft 334 kts 14°
2026-04-27 14:09 66.79726 14.86915 30273 ft 328 kts 14°
2026-04-27 14:09 66.81831 14.89079 29901 ft 322 kts 14°
2026-04-27 14:09 66.83896 14.91206 29559 ft 316 kts 14°
2026-04-27 14:10 66.85919 14.93292 29249 ft 311 kts 14°
2026-04-27 14:10 66.87884 14.95323 28932 ft 305 kts 14°
2026-04-27 14:10 66.89839 14.97345 28593 ft 300 kts 13°
2026-04-27 14:10 66.91757 14.99334 28291 ft 294 kts 13°
2026-04-27 14:11 66.93582 15.01228 27982 ft 290 kts 13°
2026-04-27 14:11 66.95438 15.03158 27675 ft 285 kts 13°
2026-04-27 14:11 66.97267 15.05063 27368 ft 281 kts 13°
2026-04-27 14:11 66.99039 15.06911 27082 ft 276 kts 13°
2026-04-27 14:12 67.00799 15.08750 26786 ft 272 kts 13°
2026-04-27 14:12 67.02542 15.10572 26490 ft 268 kts 13°
2026-04-27 14:12 67.04256 15.12367 26209 ft 265 kts 13°
2026-04-27 14:12 67.05958 15.14152 25944 ft 262 kts 13°
2026-04-27 14:13 67.07644 15.15920 25645 ft 263 kts 13°
2026-04-27 14:13 67.09349 15.17700 25370 ft 274 kts 13°
2026-04-27 14:13 67.11150 15.19580 25064 ft 281 kts 14°
2026-04-27 14:13 67.12951 15.21481 24755 ft 278 kts 14°
2026-04-27 14:14 67.14736 15.23376 24447 ft 275 kts 14°
2026-04-27 14:14 67.16469 15.25222 24166 ft 271 kts 14°
2026-04-27 14:14 67.18201 15.27067 23878 ft 267 kts 14°
2026-04-27 14:14 67.19914 15.28892 23553 ft 264 kts 14°
2026-04-27 14:15 67.21599 15.30686 23266 ft 259 kts 14°
2026-04-27 14:15 67.23252 15.32454 22982 ft 254 kts 14°
2026-04-27 14:15 67.24851 15.34165 22719 ft 250 kts 14°
2026-04-27 14:15 67.26452 15.35877 22437 ft 248 kts 14°
2026-04-27 14:16 67.28045 15.37580 22172 ft 248 kts 14°
2026-04-27 14:16 67.29659 15.39301 21907 ft 256 kts 14°
2026-04-27 14:16 67.31352 15.41101 21618 ft 268 kts 14°
2026-04-27 14:16 67.33091 15.42964 21300 ft 268 kts 15°
2026-04-27 14:17 67.34794 15.44806 21013 ft 262 kts 15°
2026-04-27 14:17 67.36445 15.46598 20747 ft 257 kts 15°
2026-04-27 14:17 67.38091 15.48385 20457 ft 254 kts 15°
2026-04-27 14:17 67.39716 15.50146 20166 ft 252 kts 15°
2026-04-27 14:18 67.41324 15.51890 19907 ft 248 kts 15°
2026-04-27 14:18 67.42916 15.53620 19645 ft 246 kts 15°
2026-04-27 14:18 67.44480 15.55318 19382 ft 246 kts 15°
2026-04-27 14:18 67.46067 15.57044 19100 ft 249 kts 15°
2026-04-27 14:19 67.47698 15.58812 18815 ft 260 kts 16°
2026-04-27 14:19 67.49401 15.60650 18495 ft 266 kts 17°
2026-04-27 14:19 67.51104 15.62519 18166 ft 262 kts 16°
2026-04-27 14:19 67.52750 15.64326 17908 ft 258 kts 17°
2026-04-27 14:20 67.54410 15.66151 17599 ft 258 kts 17°
2026-04-27 14:20 67.56061 15.67969 17285 ft 256 kts 17°
2026-04-27 14:20 67.57683 15.69763 16996 ft 250 kts 17°
2026-04-27 14:20 67.59292 15.71537 16729 ft 252 kts 17°
2026-04-27 14:21 67.60920 15.73336 16448 ft 256 kts 17°
2026-04-27 14:21 67.62602 15.75187 16160 ft 266 kts 17°
2026-04-27 14:21 67.64302 15.77060 15847 ft 270 kts 18°
2026-04-27 14:21 67.66023 15.78969 15543 ft 268 kts 18°
2026-04-27 14:22 67.67742 15.80881 15236 ft 267 kts 18°
2026-04-27 14:22 67.69455 15.82789 14924 ft 266 kts 18°
2026-04-27 14:22 67.71154 15.84684 14615 ft 263 kts 19°
2026-04-27 14:22 67.72805 15.86528 14328 ft 258 kts 19°
2026-04-27 14:23 67.74445 15.88364 14053 ft 255 kts 19°
2026-04-27 14:23 67.76082 15.90196 13734 ft 254 kts 19°
2026-04-27 14:23 67.77721 15.92033 13422 ft 257 kts 19°
2026-04-27 14:23 67.79381 15.93894 13110 ft 260 kts 19°
2026-04-27 14:24 67.81074 15.95794 12823 ft 268 kts 20°
2026-04-27 14:24 67.82780 15.97713 12519 ft 270 kts 20°
2026-04-27 14:24 67.84509 15.99664 12161 ft 270 kts 20°
2026-04-27 14:24 67.86181 16.01554 11751 ft 271 kts 20°
2026-04-27 14:25 67.87922 16.03525 11361 ft 272 kts 20°
2026-04-27 14:25 67.89659 16.05496 11072 ft 270 kts 20°
2026-04-27 14:25 67.91363 16.07431 10810 ft 267 kts 20°
2026-04-27 14:25 67.93056 16.09359 10619 ft 261 kts 20°
2026-04-27 14:26 67.94710 16.11244 10383 ft 258 kts 21°
2026-04-27 14:26 67.96375 16.13143 10056 ft 258 kts 21°
2026-04-27 14:26 67.98023 16.15026 9729 ft 257 kts 21°
2026-04-27 14:26 67.99666 16.16906 9438 ft 256 kts 20°
2026-04-27 14:27 68.01291 16.18768 9128 ft 255 kts 20°
2026-04-27 14:27 68.02893 16.20607 8856 ft 253 kts 21°
2026-04-27 14:27 68.04511 16.22468 8542 ft 252 kts 21°
2026-04-27 14:27 68.06121 16.24321 8246 ft 251 kts 20°
2026-04-27 14:28 68.07733 16.26179 7948 ft 252 kts 21°
2026-04-27 14:28 68.09334 16.28028 7673 ft 250 kts 21°
2026-04-27 14:28 68.10934 16.29878 7385 ft 249 kts 21°
2026-04-27 14:28 68.12506 16.31696 7131 ft 248 kts 21°
2026-04-27 14:29 68.14083 16.33526 6888 ft 244 kts 21°
2026-04-27 14:29 68.15620 16.35313 6612 ft 236 kts 21°
2026-04-27 14:29 68.17092 16.37032 6373 ft 230 kts 21°
2026-04-27 14:29 68.18536 16.38724 6117 ft 223 kts 21°
2026-04-27 14:30 68.19940 16.40407 5933 ft 219 kts 21°
2026-04-27 14:30 68.21318 16.42067 5711 ft 216 kts 21°
2026-04-27 14:30 68.22689 16.43719 5469 ft 215 kts 21°
2026-04-27 14:30 68.24020 16.45438 5245 ft 212 kts 21°
2026-04-27 14:31 68.25358 16.47015 4953 ft 206 kts 21°
2026-04-27 14:31 68.26631 16.48561 4816 ft 197 kts 21°
2026-04-27 14:31 68.27870 16.50035 4591 ft 191 kts 21°
2026-04-27 14:31 68.29066 16.51466 4390 ft 185 kts 21°
2026-04-27 14:32 68.30220 16.52857 4167 ft 178 kts 21°
2026-04-27 14:32 68.31337 16.54205 3933 ft 176 kts 21°
2026-04-27 14:32 68.32455 16.55557 3690 ft 176 kts 21°
2026-04-27 14:32 68.33576 16.56916 3431 ft 177 kts 21°
2026-04-27 14:33 68.34701 16.58286 3172 ft 178 kts 21°
2026-04-27 14:33 68.35813 16.59614 2912 ft 169 kts 20°
2026-04-27 14:33 68.36854 16.60776 2603 ft 154 kts 21°
2026-04-27 14:33 68.37815 16.62055 2481 ft 158 kts 24°
2026-04-27 14:34 68.38782 16.63296 2248 ft 147 kts 21°
2026-04-27 14:34 68.39707 16.64425 2029 ft 146 kts 21°
2026-04-27 14:34 68.40632 16.65558 1772 ft 145 kts 20°
2026-04-27 14:34 68.41565 16.66694 1508 ft 148 kts 18°
2026-04-27 14:35 68.42528 16.67632 1253 ft 147 kts 13°
2026-04-27 14:35 68.43518 16.68187 1109 ft 143 kts
2026-04-27 14:35 68.44481 16.68309 910 ft 139 kts 357°
2026-04-27 14:35 68.45436 16.68234 707 ft 134 kts 356°
2026-04-27 14:36 68.46372 16.68135 515 ft 134 kts 355°
2026-04-27 14:36 68.47307 16.68040 282 ft 135 kts 355°
2026-04-27 14:36 68.48224 16.67929 97 ft 129 kts 356°
2026-04-27 14:36 68.48933 16.67852 94 ft 53 kts 358°
2026-04-27 14:37 68.49131 16.67829 93 ft 11 kts 357°
2026-04-27 14:37 68.49172 16.67965 90 ft 13 kts 90°
2026-04-27 14:37 68.49167 16.68159 86 ft 10 kts 117°
2026-04-27 14:37 68.49103 16.68192 87 ft 10 kts 177°
2026-04-27 14:38 68.49030 16.68201 88 ft 14 kts 177°
2026-04-27 14:38 68.48928 16.68215 87 ft 12 kts 176°
2026-04-27 14:38 68.48890 16.68366 93 ft 10 kts 89°
2026-04-27 14:38 68.48892 16.68557 93 ft 10 kts 89°
2026-04-27 14:39 68.48894 16.68753 91 ft 11 kts 86°
2026-04-27 14:39 68.48946 16.68847 90 ft 8 kts 358°
2026-04-27 14:39 68.48968 16.68845 92 ft 1 kts 358°
2026-04-27 14:39 68.48975 16.68845 91 ft 0 kts 358°